Location: Newark
(42.8481°N, 0.4872°E)
Time: 17:03:15
(UTC+00:00)

Vanguard 3 - Pass Details

Date: 04 November 2020
Orbit: 508 x 3262 km, 33.3° (Epoch: 28 November)

Event Time Altitude Azimuth Distance (km) Brightness Sun altitude
Rises 07:01:19 0° 268° (W) 6,332 11.1 3.4°
Reaches altitude 10° 07:05:10 10° 265° (W) 5,585 10.9 4.0°
Maximum altitude 07:22:57 59° 193° (SSW) 3,590 10.7 6.9°
Drops below altitude 10° 07:41:14 10° 120° (ESE) 5,716 15.6 9.8°
Sets 07:45:14 0° 117° (ESE) 6,481 13.9 10.4°
